Location: Pitton
(51.0667°N, 1.7000°W)
Time: 16:19:59
(UTC+00:00)

Cosmos 2181 Rocket - Pass Details

Date: 17 September 2019
Orbit: 953 x 1014 km, 82.9° (Epoch: 18 October)

Event Time Altitude Azimuth Distance (km) Brightness Sun altitude
Rises 19:43:43 0° 168° (SSE) 3,650 6.7 -14.0°
Reaches altitude 10° 19:46:16 10° 163° (SSE) 2,716 6.0 -14.4°
Maximum altitude 19:52:12 49° 90° (E) 1,257 4.2 -15.3°
Drops below altitude 10° 19:58:16 10° 18° (NNE) 2,775 6.5 -16.1°
Sets 20:00:53 0° 14° (NNE) 3,737 7.2 -16.5°
